WMT411 LIPR-LATI

Flight info

Callsign WMT411
Flight time 1h 7m
Altitude 37000
Route ANC DCT ERITU DCT VAPUP DCT PETAK
Aircraft A321/M-SDE1E2E3FGIJ1J4RWXY/LB1

Departure

Time 2026-05-05 20:32
Airport Federico Fellini International Airport (LIPR)

Arrival

Time 2026-05-05 21:40
Airport Tirana International Airport Mother Teresa (LATI)
Time Latitude Longitude Altitude Speed Heading
2026-05-05 20:16 44.02241 12.61798 49 ft 0 kts 38°
2026-05-05 20:26 44.02238 12.61795 49 ft 3 kts 38°
2026-05-05 20:26 44.02220 12.61776 46 ft 4 kts 30°
2026-05-05 20:26 44.02198 12.61767 47 ft 4 kts 339°
2026-05-05 20:26 44.02180 12.61784 71 ft 0 kts 310°
2026-05-05 20:28 44.02181 12.61783 71 ft 1 kts 308°
2026-05-05 20:28 44.02179 12.61748 57 ft 8 kts 253°
2026-05-05 20:28 44.02117 12.61657 48 ft 19 kts 218°
2026-05-05 20:29 44.02104 12.61471 48 ft 23 kts 306°
2026-05-05 20:29 44.02201 12.61300 47 ft 22 kts 308°
2026-05-05 20:29 44.02290 12.61142 46 ft 20 kts 308°
2026-05-05 20:29 44.02373 12.60992 45 ft 19 kts 308°
2026-05-05 20:30 44.02455 12.60847 45 ft 19 kts 307°
2026-05-05 20:30 44.02541 12.60690 44 ft 22 kts 307°
2026-05-05 20:30 44.02638 12.60516 43 ft 24 kts 308°
2026-05-05 20:30 44.02743 12.60325 42 ft 26 kts 307°
2026-05-05 20:31 44.02833 12.60151 41 ft 12 kts 290°
2026-05-05 20:31 44.02797 12.60047 41 ft 14 kts 216°
2026-05-05 20:31 44.02706 12.60005 40 ft 15 kts 166°
2026-05-05 20:31 44.02552 12.60237 41 ft 69 kts 127°
2026-05-05 20:32 44.02096 12.61057 47 ft 142 kts 128°
2026-05-05 20:32 44.01428 12.62278 503 ft 159 kts 128°
2026-05-05 20:32 44.00763 12.63495 1333 ft 160 kts 131°
2026-05-05 20:32 43.99931 12.64583 1742 ft 174 kts 148°
2026-05-05 20:33 43.98879 12.65603 2003 ft 195 kts 150°
2026-05-05 20:33 43.97699 12.66743 2249 ft 216 kts 149°
2026-05-05 20:33 43.96443 12.67967 2985 ft 222 kts 149°
2026-05-05 20:33 43.95180 12.69219 3853 ft 225 kts 146°
2026-05-05 20:34 43.94142 12.70981 4400 ft 253 kts 121°
2026-05-05 20:34 43.93252 12.73214 4886 ft 274 kts 121°
2026-05-05 20:34 43.92310 12.75557 5687 ft 280 kts 121°
2026-05-05 20:34 43.91357 12.77892 6595 ft 283 kts 121°
2026-05-05 20:35 43.90367 12.80268 7436 ft 286 kts 122°
2026-05-05 20:35 43.89350 12.82657 8298 ft 289 kts 123°
2026-05-05 20:35 43.88311 12.85062 9186 ft 292 kts 123°
2026-05-05 20:35 43.87256 12.87478 10069 ft 295 kts 123°
2026-05-05 20:36 43.86157 12.89973 10503 ft 315 kts 123°
2026-05-05 20:36 43.84972 12.92655 10838 ft 335 kts 123°
2026-05-05 20:36 43.83741 12.95449 11477 ft 344 kts 123°
2026-05-05 20:36 43.82488 12.98297 12212 ft 349 kts 123°
2026-05-05 20:37 43.81218 13.01184 12964 ft 354 kts 124°
2026-05-05 20:37 43.79926 13.04119 13699 ft 359 kts 124°
2026-05-05 20:37 43.78616 13.07092 14370 ft 364 kts 124°
2026-05-05 20:37 43.77289 13.10101 15052 ft 368 kts 124°
2026-05-05 20:38 43.75945 13.13142 15743 ft 372 kts 125°
2026-05-05 20:38 43.74524 13.16155 16426 ft 376 kts 127°
2026-05-05 20:38 43.73028 13.19132 17118 ft 379 kts 128°
2026-05-05 20:38 43.71485 13.22112 17802 ft 383 kts 129°
2026-05-05 20:39 43.69918 13.25115 18457 ft 387 kts 129°
2026-05-05 20:39 43.68338 13.28151 19047 ft 391 kts 129°
2026-05-05 20:39 43.66753 13.31217 19666 ft 394 kts 128°
2026-05-05 20:39 43.65165 13.34312 20295 ft 396 kts 128°
2026-05-05 20:40 43.63571 13.37434 20922 ft 399 kts 128°
2026-05-05 20:40 43.61965 13.40581 21538 ft 402 kts 128°
2026-05-05 20:40 43.60350 13.43745 22168 ft 405 kts 128°
2026-05-05 20:40 43.58872 13.47083 22774 ft 411 kts 119°
2026-05-05 20:41 43.57816 13.50773 23354 ft 418 kts 109°
2026-05-05 20:41 43.56971 13.54624 23860 ft 421 kts 109°
2026-05-05 20:41 43.56114 13.58508 24297 ft 426 kts 109°
2026-05-05 20:41 43.55241 13.62436 24702 ft 430 kts 109°
2026-05-05 20:42 43.54358 13.66393 25116 ft 434 kts 109°
2026-05-05 20:42 43.53463 13.70386 25523 ft 439 kts 109°
2026-05-05 20:42 43.52557 13.74422 25924 ft 443 kts 109°
2026-05-05 20:42 43.51642 13.78498 26320 ft 447 kts 109°
2026-05-05 20:43 43.50717 13.82613 26718 ft 452 kts 109°
2026-05-05 20:43 43.49782 13.86763 27088 ft 456 kts 109°
2026-05-05 20:43 43.48836 13.90944 27467 ft 460 kts 109°
2026-05-05 20:43 43.47877 13.95167 27851 ft 464 kts 109°
2026-05-05 20:44 43.46912 13.99426 28224 ft 468 kts 109°
2026-05-05 20:44 43.45939 14.03712 28596 ft 472 kts 109°
2026-05-05 20:44 43.44952 14.08041 28982 ft 476 kts 109°
2026-05-05 20:44 43.43911 14.12374 29318 ft 478 kts 114°
2026-05-05 20:45 43.41082 14.20707 30021 ft 484 kts 118°
2026-05-05 20:45 43.39616 14.24891 30318 ft 488 kts 118°
2026-05-05 20:45 43.38140 14.29108 30610 ft 491 kts 118°
2026-05-05 20:46 43.36657 14.33349 30928 ft 494 kts 118°
2026-05-05 20:46 43.35164 14.37611 31249 ft 496 kts 118°
2026-05-05 20:46 43.33657 14.41896 31573 ft 499 kts 118°
2026-05-05 20:46 43.32142 14.46196 31932 ft 501 kts 118°
2026-05-05 20:47 43.30627 14.50493 32404 ft 500 kts 119°
2026-05-05 20:47 43.29115 14.54782 32845 ft 499 kts 119°
2026-05-05 20:47 43.27599 14.59068 33289 ft 499 kts 119°
2026-05-05 20:47 43.26082 14.63349 33729 ft 499 kts 119°
2026-05-05 20:48 43.24585 14.67566 34158 ft 498 kts 119°
2026-05-05 20:48 43.23070 14.71835 34552 ft 497 kts 119°
2026-05-05 20:48 43.21558 14.76086 34971 ft 496 kts 119°
2026-05-05 20:48 43.20048 14.80325 35411 ft 494 kts 119°
2026-05-05 20:49 43.18523 14.84601 35851 ft 492 kts 119°
2026-05-05 20:49 43.17022 14.88798 36286 ft 490 kts 119°
2026-05-05 20:49 43.15543 14.92922 36709 ft 488 kts 118°
2026-05-05 20:49 43.14045 14.97091 36980 ft 488 kts 118°
2026-05-05 20:50 43.11067 15.05369 37020 ft 482 kts 118°
2026-05-05 20:50 43.08103 15.13581 37036 ft 481 kts 118°
2026-05-05 20:51 43.05145 15.21786 37031 ft 481 kts 117°
2026-05-05 20:51 43.02549 15.30232 37030 ft 482 kts 112°
2026-05-05 20:52 43.00224 15.38838 37036 ft 483 kts 111°
2026-05-05 20:52 42.97848 15.47419 37043 ft 483 kts 112°
2026-05-05 20:53 42.95364 15.55943 37039 ft 483 kts 113°
2026-05-05 20:53 42.92843 15.64455 37039 ft 484 kts 113°
2026-05-05 20:54 42.90331 15.72966 37051 ft 484 kts 113°
2026-05-05 20:54 42.87827 15.81486 37057 ft 484 kts 113°
2026-05-05 20:55 42.85320 15.90008 37061 ft 484 kts 113°
2026-05-05 20:55 42.82799 15.98513 37062 ft 484 kts 113°
2026-05-05 20:56 42.80273 16.07003 37057 ft 484 kts 112°
2026-05-05 20:56 42.77745 16.15493 37061 ft 484 kts 112°
2026-05-05 20:57 42.75209 16.23982 37067 ft 484 kts 113°
2026-05-05 20:57 42.72670 16.32455 37062 ft 484 kts 113°
2026-05-05 20:58 42.70108 16.40930 37064 ft 484 kts 112°
2026-05-05 20:58 42.67569 16.49337 37068 ft 484 kts 112°
2026-05-05 20:59 42.65008 16.57794 37068 ft 484 kts 112°
2026-05-05 20:59 42.62440 16.66249 37073 ft 484 kts 113°
2026-05-05 21:00 42.59860 16.74701 37066 ft 484 kts 112°
2026-05-05 21:00 42.57279 16.83148 37061 ft 484 kts 112°
2026-05-05 21:01 42.54692 16.91580 37070 ft 484 kts 112°
2026-05-05 21:01 42.52092 17.00008 37072 ft 484 kts 112°
2026-05-05 21:02 42.49490 17.08432 37072 ft 484 kts 112°
2026-05-05 21:02 42.46887 17.16851 37067 ft 485 kts 112°
2026-05-05 21:03 42.44271 17.25264 37082 ft 485 kts 112°
2026-05-05 21:03 42.41639 17.33666 37085 ft 484 kts 112°
2026-05-05 21:04 42.39013 17.42057 37079 ft 484 kts 112°
2026-05-05 21:04 42.36377 17.50441 37077 ft 484 kts 112°
2026-05-05 21:05 42.33739 17.58826 37060 ft 486 kts 112°
2026-05-05 21:05 42.31086 17.67242 37051 ft 487 kts 112°
2026-05-05 21:06 42.28419 17.75670 37067 ft 489 kts 112°
2026-05-05 21:06 42.25745 17.84061 37067 ft 490 kts 112°
2026-05-05 21:07 42.23043 17.92510 37078 ft 491 kts 112°
2026-05-05 21:07 42.20338 18.00966 37087 ft 491 kts 113°
2026-05-05 21:08 42.18064 18.08048 37072 ft 491 kts 112°
2026-05-05 21:08 42.15350 18.16498 37086 ft 491 kts 112°
2026-05-05 21:09 42.12627 18.24938 37099 ft 491 kts 113°
2026-05-05 21:09 42.09897 18.33363 37098 ft 491 kts 113°
2026-05-05 21:10 42.07179 18.41726 37101 ft 491 kts 113°
2026-05-05 21:10 42.04438 18.50135 37113 ft 491 kts 112°
2026-05-05 21:11 42.01695 18.58542 37109 ft 491 kts 112°
2026-05-05 21:11 41.98947 18.66943 37116 ft 491 kts 113°
2026-05-05 21:12 41.96182 18.75338 37106 ft 491 kts 113°
2026-05-05 21:12 41.93411 18.83729 37117 ft 491 kts 113°
2026-05-05 21:13 41.90638 18.92105 37107 ft 491 kts 113°
2026-05-05 21:13 41.87858 19.00482 37117 ft 491 kts 113°
2026-05-05 21:14 41.85071 19.08856 37122 ft 492 kts 113°
2026-05-05 21:14 41.82278 19.17225 37135 ft 492 kts 113°
2026-05-05 21:15 41.79476 19.25592 37129 ft 492 kts 113°
2026-05-05 21:15 41.76176 19.33580 37110 ft 491 kts 130°
2026-05-05 21:16 41.71811 19.40620 37111 ft 492 kts 131°
2026-05-05 21:16 41.67374 19.47611 37126 ft 492 kts 131°
2026-05-05 21:17 41.63805 19.55290 37116 ft 484 kts 101°
2026-05-05 21:17 41.63325 19.59647 37101 ft 464 kts 87°
2026-05-05 21:17 41.63473 19.63860 37106 ft 446 kts 79°
2026-05-05 21:18 41.63545 19.67955 37096 ft 441 kts 96°
2026-05-05 21:18 41.62601 19.71843 37115 ft 443 kts 120°
2026-05-05 21:18 41.60670 19.75011 37113 ft 440 kts 144°
2026-05-05 21:18 41.58046 19.76991 37113 ft 430 kts 168°
2026-05-05 21:19 41.55146 19.77513 37116 ft 415 kts 193°
2026-05-05 21:19 41.52384 19.76838 37120 ft 409 kts 200°
2026-05-05 21:19 41.46807 19.75156 37112 ft 412 kts 200°
2026-05-05 21:20 41.41205 19.73460 37112 ft 413 kts 200°
2026-05-05 21:20 41.38371 19.72740 37105 ft 419 kts 189°
2026-05-05 21:20 41.35428 19.72811 37114 ft 426 kts 183°
2026-05-05 21:21 41.29632 19.72113 37107 ft 417 kts 193°
2026-05-05 21:21 41.26693 19.72173 37111 ft 430 kts 176°
2026-05-05 21:21 41.23732 19.72612 37097 ft 424 kts 189°
2026-05-05 21:22 41.20928 19.71860 37120 ft 407 kts 207°
2026-05-05 21:22 41.18203 19.70755 37103 ft 416 kts 193°
2026-05-05 21:22 41.15273 19.70883 37113 ft 431 kts 169°
2026-05-05 21:22 41.12502 19.72486 37110 ft 441 kts 145°
2026-05-05 21:23 41.10334 19.75351 37109 ft 443 kts 121°
2026-05-05 21:23 41.09101 19.79046 37106 ft 437 kts 97°
2026-05-05 21:23 41.08977 19.82988 37108 ft 423 kts 73°
2026-05-05 21:23 41.09943 19.86552 37116 ft 404 kts 49°
2026-05-05 21:24 41.11794 19.89191 37115 ft 382 kts 25°
2026-05-05 21:24 41.14158 19.90500 37118 ft 362 kts
2026-05-05 21:24 41.16405 19.90391 37114 ft 348 kts 338°
2026-05-05 21:24 41.18499 19.88929 37117 ft 341 kts 317°
2026-05-05 21:25 41.22435 19.85374 36513 ft 360 kts 341°
2026-05-05 21:25 41.24941 19.84658 35643 ft 378 kts 345°
2026-05-05 21:25 41.27563 19.84074 34535 ft 383 kts 346°
2026-05-05 21:26 41.30187 19.83514 33361 ft 381 kts 346°
2026-05-05 21:26 41.32828 19.83202 32159 ft 382 kts 354°
2026-05-05 21:26 41.35485 19.83189 31019 ft 381 kts 355°
2026-05-05 21:26 41.38127 19.83191 29881 ft 379 kts 355°
2026-05-05 21:27 41.40762 19.83182 28630 ft 377 kts 355°
2026-05-05 21:27 41.43383 19.83167 27432 ft 375 kts 355°
2026-05-05 21:27 41.45991 19.83144 26285 ft 374 kts 355°
2026-05-05 21:27 41.48589 19.83113 25202 ft 373 kts 355°
2026-05-05 21:28 41.51172 19.83067 24140 ft 370 kts 355°
2026-05-05 21:28 41.53739 19.83016 22997 ft 368 kts 356°
2026-05-05 21:28 41.56293 19.82996 21799 ft 365 kts 356°
2026-05-05 21:28 41.58827 19.82968 20656 ft 362 kts 356°
2026-05-05 21:29 41.61333 19.82925 19556 ft 359 kts 356°
2026-05-05 21:29 41.63812 19.82871 18494 ft 355 kts 356°
2026-05-05 21:29 41.66267 19.82808 17305 ft 351 kts 356°
2026-05-05 21:29 41.68696 19.82742 16147 ft 347 kts 356°
2026-05-05 21:30 41.71098 19.82668 15039 ft 343 kts 356°
2026-05-05 21:30 41.73475 19.82588 13962 ft 340 kts 356°
2026-05-05 21:30 41.75822 19.82460 12775 ft 334 kts 350°
2026-05-05 21:30 41.77991 19.81520 11629 ft 325 kts 327°
2026-05-05 21:31 41.79673 19.79578 10553 ft 317 kts 305°
2026-05-05 21:31 41.80685 19.77049 9732 ft 302 kts 285°
2026-05-05 21:31 41.80996 19.74334 8901 ft 290 kts 267°
2026-05-05 21:31 41.80648 19.71721 8128 ft 282 kts 249°
2026-05-05 21:32 41.79729 19.69458 7390 ft 274 kts 231°
2026-05-05 21:32 41.78366 19.67732 6693 ft 268 kts 214°
2026-05-05 21:32 41.76716 19.66666 6066 ft 260 kts 196°
2026-05-05 21:32 41.74991 19.66312 5758 ft 245 kts 181°
2026-05-05 21:33 41.73328 19.66632 5529 ft 241 kts 157°
2026-05-05 21:33 41.71935 19.67836 5325 ft 235 kts 148°
2026-05-05 21:33 41.70449 19.68498 5135 ft 222 kts 182°
2026-05-05 21:33 41.68931 19.68414 4951 ft 217 kts 179°
2026-05-05 21:34 41.67440 19.68577 4856 ft 209 kts 175°
2026-05-05 21:34 41.66025 19.68776 4652 ft 202 kts 175°
2026-05-05 21:34 41.64642 19.68965 4392 ft 198 kts 175°
2026-05-05 21:34 41.63281 19.69147 4144 ft 196 kts 175°
2026-05-05 21:35 41.61929 19.69328 3882 ft 195 kts 175°
2026-05-05 21:35 41.60601 19.69506 3628 ft 194 kts 175°
2026-05-05 21:35 41.59261 19.69685 3376 ft 193 kts 175°
2026-05-05 21:35 41.57911 19.69866 3114 ft 192 kts 175°
2026-05-05 21:36 41.56602 19.70040 2858 ft 191 kts 174°
2026-05-05 21:36 41.55281 19.70217 2602 ft 190 kts 175°
2026-05-05 21:36 41.53998 19.70388 2377 ft 180 kts 174°
2026-05-05 21:36 41.52782 19.70551 2123 ft 171 kts 175°
2026-05-05 21:37 41.51637 19.70703 1891 ft 159 kts 174°
2026-05-05 21:37 41.50587 19.70843 1710 ft 143 kts 175°
2026-05-05 21:37 41.49633 19.70971 1512 ft 134 kts 175°
2026-05-05 21:37 41.48715 19.71093 1331 ft 131 kts 175°
2026-05-05 21:38 41.47810 19.71213 1152 ft 130 kts 175°
2026-05-05 21:38 41.46905 19.71334 982 ft 131 kts 175°
2026-05-05 21:38 41.45991 19.71455 806 ft 132 kts 174°
2026-05-05 21:38 41.45078 19.71576 636 ft 132 kts 174°
2026-05-05 21:39 41.44157 19.71695 454 ft 134 kts 174°
2026-05-05 21:39 41.43229 19.71824 294 ft 135 kts 174°
2026-05-05 21:39 41.42295 19.71945 122 ft 129 kts 174°
2026-05-05 21:39 41.41559 19.72046 123 ft 82 kts 173°
2026-05-05 21:40 41.41096 19.72112 132 ft 61 kts 174°
2026-05-05 21:40 41.40803 19.72153 133 ft 31 kts 174°
2026-05-05 21:40 41.40689 19.72128 134 ft 15 kts 230°
2026-05-05 21:40 41.40656 19.71972 132 ft 19 kts 257°
2026-05-05 21:41 41.40645 19.71803 132 ft 17 kts 302°
2026-05-05 21:41 41.40765 19.71754 132 ft 20 kts 351°
2026-05-05 21:41 41.40909 19.71722 131 ft 22 kts 350°
2026-05-05 21:41 41.41071 19.71698 127 ft 25 kts 355°
2026-05-05 21:42 41.41246 19.71675 126 ft 23 kts 354°
2026-05-05 21:42 41.41402 19.71653 127 ft 24 kts 354°
2026-05-05 21:42 41.41568 19.71632 125 ft 20 kts 354°
2026-05-05 21:42 41.41705 19.71613 124 ft 19 kts 354°
2026-05-05 21:43 41.41845 19.71595 122 ft 20 kts 354°
2026-05-05 21:43 41.41937 19.71581 123 ft 9 kts 344°
2026-05-05 21:43 41.41948 19.71525 122 ft 2 kts 266°
2026-05-05 21:43 41.41948 19.71522 121 ft 0 kts 266°